This is the latest recevied weather packets stored in our database for station/object WA6TJQ. If no packets are shown the sender has not sent any weather packets the latest 10 day(s).
| Time | Temp. | Humidity | Pressure | Rain* | Wind** | Luminosity | Snow |
|---|---|---|---|---|---|---|---|
| 1777483603 | 10° C | 58% | 1012.5 hPa | 0 mm | - | - | - |
| 1777483301 | 10° C | 58% | 1012.5 hPa | 0 mm | - | - | - |
| 1777483001 | 9.44° C | 59% | 1012.5 hPa | 0 mm | - | - | - |
| 1777482701 | 9.44° C | 58% | 1012.5 hPa | 0 mm | - | - | - |
| 1777482401 | 9.44° C | 59% | 1012.5 hPa | 0 mm | - | - | - |
| 1777482101 | 8.89° C | 59% | 1012.3 hPa | 0 mm | - | - | - |
| 1777481801 | 8.89° C | 59% | 1012.5 hPa | 0 mm | - | - | - |
| 1777481501 | 8.89° C | 59% | 1012.4 hPa | 0 mm | - | - | - |
| 1777481201 | 8.89° C | 59% | 1012.4 hPa | 0 mm | - | - | - |
| 1777480901 | 8.89° C | 58% | 1012.4 hPa | 0 mm | - | - | - |
| 1777480601 | 8.89° C | 58% | 1012.4 hPa | 0 mm | - | - | - |
| 1777480301 | 8.89° C | 55% | 1012.3 hPa | 0 mm | - | - | - |
| 1777480001 | 8.33° C | 56% | 1012.4 hPa | 0 mm | - | - | - |
| 1777479708 | 8.33° C | 56% | 1012.4 hPa | 0 mm | - | - | - |
| 1777479401 | 8.33° C | 57% | 1012.3 hPa | 0 mm | - | - | - |
| 1777479101 | 8.33° C | 58% | 1012.2 hPa | 0 mm | - | - | - |
| 1777478801 | 7.78° C | 54% | 1012.3 hPa | 0 mm | - | - | - |
| 1777478501 | 7.78° C | 56% | 1012.3 hPa | 0 mm | - | - | - |
| 1777478201 | 7.22° C | 58% | 1012.3 hPa | 0 mm | - | - | - |
| 1777477900 | 6.67° C | 57% | 1012.3 hPa | 0 mm | - | - | - |
| 1777477601 | 6.67° C | 60% | 1012.3 hPa | 0 mm | - | - | - |
| 1777477301 | 6.67° C | 58% | 1012.4 hPa | 0 mm | - | - | - |
| 1777477000 | 6.11° C | 60% | 1012.5 hPa | 0 mm | - | - | - |
| 1777476700 | 6.11° C | 59% | 1012.3 hPa | 0 mm | - | - | - |
| 1777476400 | 6.11° C | 59% | 1012.4 hPa | 0 mm | - | - | - |
* Rain latest hour (hover to see other rain measurements)
** Current wind speed in m/s (hover to see current wind gust speed)